Météo par heure à Jugsalai

Ce jour, 16 Juin, Mercredi

Heure Température Précipitation Vent Pression Humidité
00:00 +29°C° 0 mm 2 m/s 733 mmHg 80%
01:00 +29°C° 0.4 mm 2 m/s 733 mmHg 80%
02:00 +29°C° 0.4 mm 2 m/s 733 mmHg 80%
03:00 +29°C° 0.4 mm 2 m/s 733 mmHg 80%
04:00 +29°C° 0.2 mm 2 m/s 733 mmHg 80%
05:00 +29°C° 0.2 mm 2 m/s 733 mmHg 81%
06:00 +28°C° 0 mm 2 m/s 733 mmHg 83%
07:00 +28°C° 0 mm 2 m/s 734 mmHg 82%
08:00 +28°C° 0 mm 2 m/s 734 mmHg 82%
09:00 +28°C° 0 mm 2 m/s 735 mmHg 82%
10:00 +28°C° 0 mm 2 m/s 735 mmHg 81%
11:00 +29°C° 0 mm 2 m/s 735 mmHg 80%
12:00 +28°C° 0 mm 2 m/s 735 mmHg 82%
13:00 +28°C° 2.9 mm 2 m/s 734 mmHg 85%
14:00 +27°C° 2.9 mm 3 m/s 734 mmHg 89%
15:00 +26°C° 2.9 mm 3 m/s 734 mmHg 93%
16:00 +26°C° 3.8 mm 3 m/s 734 mmHg 93%
17:00 +26°C° 3.8 mm 3 m/s 734 mmHg 93%
18:00 +26°C° 0 mm 4 m/s 734 mmHg 94%
19:00 +26°C° 1.7 mm 3 m/s 734 mmHg 94%
20:00 +26°C° 1.7 mm 3 m/s 735 mmHg 94%
21:00 +26°C° 1.7 mm 3 m/s 735 mmHg 94%
22:00 +26°C° 0.4 mm 2 m/s 735 mmHg 94%
23:00 +27°C° 0.4 mm 2 m/s 735 mmHg 93%

Demain, 17 Juin, Jeudi

Heure Température Précipitation Vent Pression Humidité
00:00 +27°C° 0.4 mm 2 m/s 735 mmHg 92%
01:00 +27°C° 0.1 mm 2 m/s 734 mmHg 91%
02:00 +27°C° 0.1 mm 1 m/s 734 mmHg 90%
03:00 +27°C° 0.1 mm 1 m/s 734 mmHg 88%
04:00 +27°C° 0.1 mm 2 m/s 734 mmHg 87%
05:00 +27°C° 0.1 mm 2 m/s 734 mmHg 86%
06:00 +27°C° 0.1 mm 2 m/s 734 mmHg 85%
07:00 +27°C° 0.1 mm 2 m/s 735 mmHg 85%
08:00 +27°C° 0.1 mm 2 m/s 735 mmHg 85%
09:00 +28°C° 0.1 mm 2 m/s 735 mmHg 86%
10:00 +28°C° 0.1 mm 2 m/s 735 mmHg 84%
11:00 +28°C° 0.1 mm 2 m/s 735 mmHg 83%
12:00 +28°C° 0.1 mm 2 m/s 735 mmHg 81%
13:00 +29°C° 0.3 mm 2 m/s 735 mmHg 81%
14:00 +29°C° 0.3 mm 1 m/s 735 mmHg 80%
15:00 +29°C° 0.3 mm 1 m/s 734 mmHg 79%
16:00 +29°C° 0.1 mm 1 m/s 734 mmHg 80%
17:00 +28°C° 0.1 mm 1 m/s 734 mmHg 81%
18:00 +28°C° 0.1 mm 1 m/s 734 mmHg 82%
19:00 +28°C° 0 mm 1 m/s 735 mmHg 83%
20:00 +28°C° 0 mm 1 m/s 735 mmHg 84%
21:00 +27°C° 0 mm 1 m/s 736 mmHg 86%
22:00 +27°C° 0 mm 1 m/s 736 mmHg 86%
23:00 +27°C° 0 mm 1 m/s 736 mmHg 86%

Après-demain, 18 Juin, Vendredi

Heure Température Précipitation Vent Pression Humidité
00:00 +27°C° 0 mm 1 m/s 736 mmHg 86%
01:00 +27°C° 0 mm 1 m/s 736 mmHg 86%
02:00 +27°C° 0 mm 1 m/s 735 mmHg 87%
03:00 +27°C° 0 mm 1 m/s 735 mmHg 87%
04:00 +27°C° 0.1 mm 1 m/s 735 mmHg 87%
05:00 +27°C° 0.1 mm 1 m/s 735 mmHg 87%
06:00 +27°C° 0.1 mm 1 m/s 736 mmHg 87%
07:00 +27°C° 0.5 mm 1 m/s 736 mmHg 86%
08:00 +28°C° 0.5 mm 1 m/s 736 mmHg 84%
09:00 +28°C° 0.5 mm 1 m/s 737 mmHg 83%
10:00 +29°C° 0.1 mm 1 m/s 737 mmHg 80%
11:00 +30°C° 0.1 mm 2 m/s 736 mmHg 77%
12:00 +30°C° 0.1 mm 2 m/s 736 mmHg 74%
13:00 +31°C° 0.4 mm 2 m/s 736 mmHg 71%
14:00 +32°C° 0.4 mm 2 m/s 735 mmHg 68%
15:00 +34°C° 0.4 mm 2 m/s 735 mmHg 65%
16:00 +34°C° 0.1 mm 2 m/s 735 mmHg 65%
17:00 +33°C° 0.1 mm 1 m/s 734 mmHg 65%
18:00 +33°C° 0.1 mm 1 m/s 734 mmHg 65%
19:00 +32°C° 1.9 mm 1 m/s 735 mmHg 70%
20:00 +31°C° 1.9 mm 1 m/s 735 mmHg 75%
21:00 +29°C° 1.9 mm 2 m/s 736 mmHg 80%
22:00 +29°C° 1.2 mm 3 m/s 736 mmHg 81%
23:00 +29°C° 1.2 mm 3 m/s 736 mmHg 82%

19 Juin, Samedi

Heure Température Précipitation Vent Pression Humidité
00:00 +28°C° 1.2 mm 4 m/s 736 mmHg 83%
01:00 +28°C° 0.1 mm 4 m/s 735 mmHg 84%
02:00 +28°C° 0.1 mm 4 m/s 735 mmHg 85%
03:00 +27°C° 0.1 mm 5 m/s 734 mmHg 85%
04:00 +27°C° 0 mm 4 m/s 735 mmHg 86%
05:00 +27°C° 0 mm 3 m/s 735 mmHg 87%
06:00 +27°C° 0 mm 3 m/s 735 mmHg 87%
07:00 +27°C° 0.3 mm 3 m/s 735 mmHg 86%
08:00 +28°C° 0.3 mm 3 m/s 735 mmHg 84%
09:00 +29°C° 0.3 mm 3 m/s 736 mmHg 82%
10:00 +29°C° 0.6 mm 4 m/s 735 mmHg 81%
11:00 +29°C° 0.6 mm 4 m/s 735 mmHg 79%
12:00 +30°C° 0.6 mm 4 m/s 735 mmHg 78%
13:00 +30°C° 0.8 mm 4 m/s 735 mmHg 77%
14:00 +30°C° 0.8 mm 4 m/s 734 mmHg 76%
15:00 +30°C° 0.8 mm 4 m/s 734 mmHg 75%
16:00 +30°C° 1.2 mm 4 m/s 733 mmHg 76%
17:00 +30°C° 1.2 mm 4 m/s 733 mmHg 78%
18:00 +30°C° 1.2 mm 3 m/s 733 mmHg 79%
19:00 +29°C° 0.3 mm 3 m/s 734 mmHg 80%
20:00 +29°C° 0.3 mm 3 m/s 734 mmHg 81%
21:00 +29°C° 0.3 mm 3 m/s 735 mmHg 82%
22:00 +28°C° 0.1 mm 3 m/s 735 mmHg 83%
23:00 +28°C° 0.1 mm 3 m/s 734 mmHg 84%

20 Juin, Dimanche

Heure Température Précipitation Vent Pression Humidité
00:00 +28°C° 0.1 mm 4 m/s 734 mmHg 85%
01:00 +28°C° 0 mm 4 m/s 734 mmHg 85%
02:00 +28°C° 0 mm 4 m/s 734 mmHg 86%
03:00 +27°C° 0 mm 4 m/s 733 mmHg 86%
04:00 +27°C° 0 mm 4 m/s 734 mmHg 86%
05:00 +27°C° 0 mm 4 m/s 734 mmHg 86%
06:00 +27°C° 0 mm 4 m/s 734 mmHg 86%
07:00 +28°C° 0 mm 5 m/s 734 mmHg 82%
08:00 +29°C° 0 mm 5 m/s 735 mmHg 79%
09:00 +30°C° 0 mm 5 m/s 735 mmHg 75%
10:00 +32°C° 0.1 mm 5 m/s 735 mmHg 71%
11:00 +33°C° 0.1 mm 5 m/s 735 mmHg 67%
12:00 +34°C° 0.1 mm 5 m/s 735 mmHg 63%
13:00 +34°C° 0.7 mm 6 m/s 734 mmHg 62%
14:00 +34°C° 0.7 mm 6 m/s 734 mmHg 62%
15:00 +34°C° 0.7 mm 6 m/s 734 mmHg 62%
16:00 +33°C° 0.3 mm 6 m/s 734 mmHg 66%
17:00 +33°C° 0.3 mm 6 m/s 734 mmHg 69%
18:00 +32°C° 0.3 mm 5 m/s 734 mmHg 73%
19:00 +30°C° 0 mm 5 m/s 735 mmHg 75%
20:00 +29°C° 0 mm 4 m/s 735 mmHg 78%
21:00 +29°C° 0 mm 4 m/s 735 mmHg 80%
22:00 +28°C° 0 mm 4 m/s 735 mmHg 81%
23:00 +28°C° 0 mm 4 m/s 735 mmHg 81%

21 Juin, Lundi

Heure Température Précipitation Vent Pression Humidité
00:00 +28°C° 0 mm 3 m/s 735 mmHg 82%
01:00 +28°C° 0 mm 3 m/s 735 mmHg 83%
02:00 +28°C° 0 mm 3 m/s 735 mmHg 83%
03:00 +28°C° 0 mm 3 m/s 735 mmHg 84%
04:00 +28°C° 0 mm 3 m/s 735 mmHg 84%
05:00 +28°C° 0 mm 3 m/s 735 mmHg 84%
06:00 +28°C° 0 mm 3 m/s 735 mmHg 84%
07:00 +29°C° 0 mm 3 m/s 736 mmHg 81%
08:00 +30°C° 0 mm 3 m/s 736 mmHg 77%
09:00 +31°C° 0 mm 3 m/s 736 mmHg 73%
10:00 +31°C° 0.2 mm 3 m/s 736 mmHg 70%
11:00 +33°C° 0.2 mm 4 m/s 736 mmHg 67%
12:00 +34°C° 0.2 mm 4 m/s 735 mmHg 63%
13:00 +34°C° 0.2 mm 4 m/s 735 mmHg 62%
14:00 +35°C° 0.2 mm 4 m/s 734 mmHg 60%
15:00 +35°C° 0.2 mm 4 m/s 734 mmHg 58%
16:00 +35°C° 0.4 mm 4 m/s 734 mmHg 61%
17:00 +34°C° 0.4 mm 4 m/s 734 mmHg 64%
18:00 +33°C° 0.4 mm 4 m/s 734 mmHg 67%
19:00 +33°C° 0.2 mm 4 m/s 734 mmHg 71%
20:00 +32°C° 0.2 mm 4 m/s 735 mmHg 75%
21:00 +30°C° 0.2 mm 4 m/s 735 mmHg 79%
22:00 +29°C° 0 mm 3 m/s 735 mmHg 81%
23:00 +29°C° 0 mm 3 m/s 735 mmHg 82%
Voir plus

Nous avons besoin de votre consentement

Meteoprog et ses fournisseurs de services peuvent stocker et accéder à des données personnelles telles que des cookies, des identifiants d'appareils ou d'autres technologies similaires sur votre appareil et traiter ces données pour personnaliser le contenu et les publicités, ainsi que pour fournir des fonctionnalités de médias sociaux et analyser le trafic.

  • Stocker et/ou accéder à des informations sur votre appareil

    Des cookies, des identifiants d'appareils ou d'autres informations peuvent être stockés ou accessibles sur votre appareil aux fins indiquées ci-dessus.

  • Annonces et contenus personnalisés, mesure des annonces et des contenus, connaissance de l'audience et développement de produits

    Les annonces et le contenu peuvent être personnalisés en fonction d'un profil. D'autres données peuvent être ajoutées pour mieux personnaliser les annonces et le contenu. Les performances des publicités et du contenu peuvent être mesurées. Il est possible d'obtenir des informations sur le public qui a vu les publicités et le contenu. Ces données peuvent être utilisées pour développer ou améliorer l'expérience de l'utilisateur, les systèmes et les logiciels.

En cliquant sur "J'accepte", vous autorisez l'utilisation de cookies, des identifiants d'appareils, des balises web ou d'autres technologies similaires. Vos paramètres peuvent être modifiés dans le navigateur de votre appareil.

Dans certains cas, des intérêts légitimes peuvent être invoqués plutôt qu'un consentement. Vous pouvez en savoir plus à ce sujet dans notre Politique de confidentialité et de cookies.